Location: Newark
(49.3000°N, 9.4667°E)
Time: 10:50:55
(UTC+00:00)

Transit 2A Rocket - Pass Details

Date: 23 May 2019
Orbit: 586 x 917 km, 66.7° (Epoch: 17 June)

Event Time Altitude Azimuth Distance (km) Brightness Sun altitude
Rises 21:35:08 0° 309° (NW) 3,543 9.6 -16.3°
Reaches altitude 10° 21:39:03 10° 333° (NNW) 2,566 9.1 -16.6°
Maximum altitude 21:42:13 14° 5° (N) 2,219 8.2 -16.8°
Drops below altitude 10° 21:45:17 10° 38° (NE) 2,476 8.0 -17.0°
Sets 21:48:56 0° 62° (ENE) 3,340 8.4 -17.2°
